Weather History for Rugby, ND

Change the Weather History Date:

Monday, October 21, 2013

  Actual Average Record
Temperature  
Mean Temperature 26 °F -  
Max Temperature 32 °F 54 °F 74 °F (1953)
Min Temperature 21 °F 30 °F 11 °F (1987)
Degree Days  
Heating Degree Days 38    
Moisture  
Dew Point 21 °F    
Average Humidity 75    
Maximum Humidity 93    
Minimum Humidity 60    
Precipitation  
Precipitation 0.00 in - - ()
Sea Level Pressure  
Sea Level Pressure 29.97 in    
Wind  
Wind Speed 6 mph (North)    
Max Wind Speed 14 mph    
Max Gust Speed 17 mph    
Visibility 10 miles    
Events      
Averages and records for this station are not official NWS values.
T = Trace of Precipitation, MM = Missing Value Source: NWS Daily Summary

Daily Weather History Graph

Daily Weather History Graph

Search for Another Location

Airport:

Trip Planner

Search our weather history database for the weather conditions in past years. The results will help you decide how hot, cold, wet, or windy it might be!

Date:

Astronomy

Oct. 21, 2013 Rise Set
Actual Time 8:09 AM CDT 6:39 PM CDT
Civil Twilight 7:37 AM CDT 7:11 PM CDT
Nautical Twilight 7:01 AM CDT 7:47 PM CDT
Astronomical Twilight 6:24 AM CDT 8:23 PM CDT
Moon 8:21 PM CDT (10/21) 10:57 AM CDT (10/21)
Length of Visible Light 11h 33m
Length of Day
10h 29m
Waning Gibbous, 92% of the Moon is Illuminated
Oct 21
Waning Gibbous
Oct 26
Last Quarter
Nov 3
New
Nov 9
First Quarter
Nov 17
Full

Hourly Weather History & Observations

Time (CDT) Temp. Windchill Dew Point Humidity Pressure Visibility Wind Dir Wind Speed Gust Speed Precip Events Conditions
12:15 AM 30.2 °F 22.6 °F 23.0 °F 75% 29.99 in 10.0 mi NNW 8.1 mph - N/A   Overcast
12:35 AM 30.2 °F 22.6 °F 24.8 °F 80% 29.99 in 10.0 mi NNW 8.1 mph - N/A   Overcast
12:55 AM 28.4 °F 19.7 °F 23.0 °F 80% 29.99 in 10.0 mi North 9.2 mph - N/A   Overcast
1:15 AM 28.4 °F 19.7 °F 23.0 °F 80% 29.99 in 10.0 mi NNW 9.2 mph - N/A   Overcast
1:35 AM 28.4 °F 17.5 °F 21.2 °F 74% 29.99 in 10.0 mi North 13.8 mph - N/A   Overcast
1:55 AM 28.4 °F 18.5 °F 19.4 °F 69% 29.99 in 10.0 mi North 11.5 mph 17.3 mph N/A   Mostly Cloudy
2:15 AM 28.4 °F 19.1 °F 21.2 °F 74% 30.00 in 10.0 mi NNW 10.4 mph - N/A   Mostly Cloudy
2:35 AM 28.4 °F 18.5 °F 19.4 °F 69% 29.99 in 10.0 mi NNW 11.5 mph - N/A   Mostly Cloudy
2:55 AM 26.6 °F 17.5 °F 19.4 °F 74% 30.00 in 10.0 mi NNW 9.2 mph - N/A   Overcast
3:15 AM 26.6 °F 19.1 °F 19.4 °F 74% 30.00 in 10.0 mi NNW 6.9 mph - N/A   Overcast
3:35 AM 26.6 °F 18.2 °F 19.4 °F 74% 29.99 in 10.0 mi North 8.1 mph - N/A   Mostly Cloudy
3:55 AM 24.8 °F 16.9 °F 19.4 °F 80% 29.99 in 10.0 mi North 6.9 mph - N/A   Partly Cloudy
4:15 AM 24.8 °F 16.9 °F 19.4 °F 80% 29.99 in 10.0 mi NNW 6.9 mph - N/A   Clear
4:35 AM 24.8 °F 16.1 °F 19.4 °F 80% 29.99 in 10.0 mi NNW 8.1 mph - N/A   Clear
4:55 AM 24.8 °F 16.1 °F 19.4 °F 80% 29.99 in 10.0 mi NNW 8.1 mph - N/A   Clear
5:15 AM 24.8 °F 16.9 °F 19.4 °F 80% 30.00 in 10.0 mi NNW 6.9 mph - N/A   Clear
5:35 AM 23.0 °F 15.8 °F 19.4 °F 86% 30.00 in 10.0 mi NW 5.8 mph - N/A   Clear
5:55 AM 23.0 °F 17.0 °F 19.4 °F 86% 29.99 in 10.0 mi NW 4.6 mph - N/A   Clear
6:15 AM 21.2 °F 12.6 °F 19.4 °F 93% 29.99 in 10.0 mi WNW 6.9 mph - N/A   Clear
6:35 AM 23.0 °F 14.7 °F 19.4 °F 86% 29.99 in 10.0 mi NW 6.9 mph - N/A   Partly Cloudy
6:55 AM 23.0 °F 13.9 °F 19.4 °F 86% 30.00 in 10.0 mi NW 8.1 mph - N/A   Scattered Clouds
7:15 AM 23.0 °F 13.9 °F 19.4 °F 86% 30.00 in 10.0 mi NW 8.1 mph - N/A   Mostly Cloudy
7:35 AM 23.0 °F 15.8 °F 19.4 °F 86% 29.99 in 10.0 mi NNW 5.8 mph - N/A   Mostly Cloudy
7:55 AM 23.0 °F 15.8 °F 19.4 °F 86% 29.99 in 10.0 mi NNW 5.8 mph - N/A   Mostly Cloudy
8:15 AM 24.8 °F 19.1 °F 19.4 °F 80% 29.99 in 10.0 mi NNW 4.6 mph - N/A   Overcast
8:35 AM 24.8 °F 16.1 °F 19.4 °F 80% 29.99 in 10.0 mi North 8.1 mph - N/A   Overcast
8:55 AM 24.8 °F 19.1 °F 19.4 °F 80% 29.99 in 10.0 mi North 4.6 mph - N/A   Mostly Cloudy
9:15 AM 24.8 °F 16.9 °F 19.4 °F 80% 29.99 in 10.0 mi North 6.9 mph - N/A   Mostly Cloudy
9:35 AM 24.8 °F 19.1 °F 19.4 °F 80% 29.99 in 10.0 mi North 4.6 mph - N/A   Mostly Cloudy
9:55 AM 24.8 °F 17.9 °F 19.4 °F 80% 29.99 in 10.0 mi NNW 5.8 mph - N/A   Partly Cloudy
10:15 AM 26.6 °F 20.0 °F 19.4 °F 74% 29.99 in 10.0 mi North 5.8 mph - N/A   Scattered Clouds
10:35 AM 26.6 °F 20.0 °F 19.4 °F 74% 29.99 in 10.0 mi North 5.8 mph - N/A   Partly Cloudy
10:55 AM 26.6 °F 19.1 °F 19.4 °F 74% 29.99 in 10.0 mi North 6.9 mph - N/A   Scattered Clouds
11:15 AM 26.6 °F 21.2 °F 19.4 °F 74% 30.00 in 10.0 mi NNW 4.6 mph - N/A   Mostly Cloudy
11:35 AM 28.4 °F 22.2 °F 19.4 °F 69% 29.99 in 10.0 mi NNW 5.8 mph - N/A   Mostly Cloudy
11:55 AM 26.6 °F 22.6 °F 19.4 °F 74% 29.99 in 10.0 mi North 3.5 mph - N/A   Partly Cloudy
12:15 PM 28.4 °F 23.3 °F 19.4 °F 69% 29.99 in 10.0 mi NNW 4.6 mph - N/A   Clear
12:55 PM 28.4 °F 23.3 °F 19.4 °F 69% 29.97 in 10.0 mi North 4.6 mph - N/A   Clear
1:15 PM 30.2 °F 24.3 °F 19.4 °F 64% 29.97 in 10.0 mi NE 5.8 mph - N/A   Clear
1:35 PM 30.2 °F - 19.4 °F 64% 29.96 in 10.0 mi Calm Calm - N/A   Clear
1:55 PM 32.0 °F 28.7 °F 19.4 °F 60% 29.96 in 10.0 mi NE 3.5 mph - N/A   Clear
2:15 PM 32.0 °F - 19.4 °F 60% 29.95 in 10.0 mi Calm Calm - N/A   Clear
2:35 PM 32.0 °F 27.5 °F 21.2 °F 64% 29.95 in 10.0 mi West 4.6 mph - N/A   Clear
2:55 PM 32.0 °F 28.7 °F 21.2 °F 64% 29.95 in 10.0 mi South 3.5 mph - N/A   Clear
3:15 PM 32.0 °F - 19.4 °F 60% 29.94 in 10.0 mi Calm Calm - N/A   Clear
3:35 PM 32.0 °F 27.5 °F 21.2 °F 64% 29.93 in 10.0 mi NNW 4.6 mph - N/A   Clear
3:55 PM 32.0 °F - 19.4 °F 60% 29.94 in 10.0 mi Calm Calm - N/A   Clear
4:15 PM 32.0 °F - 19.4 °F 60% 29.94 in 10.0 mi Calm Calm - N/A   Clear
4:35 PM 32.0 °F - 19.4 °F 60% 29.94 in 10.0 mi Calm Calm - N/A   Clear
4:55 PM 32.0 °F - 19.4 °F 60% 29.94 in 10.0 mi Calm Calm - N/A   Clear
5:15 PM 32.0 °F 28.7 °F 19.4 °F 60% 29.94 in 10.0 mi West 3.5 mph - N/A   Clear
5:35 PM 32.0 °F 28.7 °F 21.2 °F 64% 29.93 in 10.0 mi WSW 3.5 mph - N/A   Clear
5:55 PM 32.0 °F - 21.2 °F 64% 29.94 in 10.0 mi Calm Calm - N/A   Clear
6:15 PM 32.0 °F - 21.2 °F 64% 29.94 in 10.0 mi Calm Calm - N/A   Clear
6:35 PM 32.0 °F - 21.2 °F 64% 29.94 in 10.0 mi Calm Calm - N/A   Clear
6:55 PM 32.0 °F - 23.0 °F 69% 29.94 in 10.0 mi Calm Calm - N/A   Clear
7:15 PM 32.0 °F - 23.0 °F 69% 29.94 in 10.0 mi Calm Calm - N/A   Clear
7:35 PM 32.0 °F - 24.8 °F 75% 29.95 in 10.0 mi Calm Calm - N/A   Clear
7:55 PM 32.0 °F 27.5 °F 24.8 °F 75% 29.95 in 10.0 mi NE 4.6 mph - N/A   Mostly Cloudy
8:15 PM 32.0 °F - 24.8 °F 75% 29.96 in 10.0 mi Calm Calm - N/A   Mostly Cloudy
8:35 PM 32.0 °F - 24.8 °F 75% 29.96 in 10.0 mi Calm Calm - N/A   Partly Cloudy
8:55 PM 30.2 °F 26.7 °F 24.8 °F 80% 29.95 in 10.0 mi ENE 3.5 mph - N/A   Partly Cloudy
9:15 PM 30.2 °F 24.3 °F 24.8 °F 80% 29.95 in 10.0 mi East 5.8 mph - N/A   Clear
9:35 PM 30.2 °F 25.4 °F 24.8 °F 80% 29.96 in 10.0 mi East 4.6 mph - N/A   Mostly Cloudy
9:55 PM 30.2 °F 26.7 °F 24.8 °F 80% 29.96 in 10.0 mi East 3.5 mph - N/A   Overcast
10:15 PM 30.2 °F 26.7 °F 26.6 °F 86% 29.97 in 10.0 mi East 3.5 mph - N/A   Scattered Clouds
10:35 PM 30.2 °F 26.7 °F 24.8 °F 80% 29.98 in 10.0 mi ENE 3.5 mph - N/A   Scattered Clouds
10:55 PM 30.2 °F 26.7 °F 26.6 °F 86% 29.97 in 10.0 mi East 3.5 mph - N/A   Scattered Clouds
11:15 PM 30.2 °F 26.7 °F 26.6 °F 86% 29.97 in 10.0 mi East 3.5 mph - N/A   Clear
11:35 PM 30.2 °F - 26.6 °F 86% 29.98 in 10.0 mi Calm Calm - N/A   Clear
11:55 PM 30.2 °F - 26.6 °F 86% 29.98 in 10.0 mi Calm Calm - N/A   Mostly Cloudy